Hourly Data Report for October 18, 2015

All times are specified in Local Standard Time (LST). Add 1 hour to adjust for Daylight Saving Time where and when it is observed.

HALL BEACH A
NUNAVUT

68°46'33.000" N
81°14'33.000" W
9.10 m
2402354
71293
YUX

Download Data

Hourly Data (October 2015)
Hourly Data Report for October 18, 2015
Temp Definition
°C
Dew Point Temp Definition
°C
Rel Hum Definition
%
Wind Dir Definition
10's deg

Wind Spd Definition
km/h
Visibility Definition
km
Stn Press Definition
kPa
Hmdx Definition


Wind Chill Definition


Weather Definition


TIME
00:00 Legend Double Dagger -5.5 -6.9 90 31 22 16.1 100.80   -13 LegendNANA
01:00 Legend Double Dagger -5.3 -7.2 87 31 17 16.1 100.81   -11 LegendNANA
02:00 Legend Double Dagger -7.4 -8.5 92 31 15 16.1 100.85   -14 LegendNANA
03:00 Legend Double Dagger -8.4 -9.2 94 30 15 16.1 100.84   -15 LegendNANA
04:00 Legend Double Dagger -7.9 -8.7 94 31 13 16.1 100.84   -14 LegendNANA
05:00 Legend Double Dagger -5.9 -6.9 93 31 13 16.1 100.83   -11 LegendNANA
06:00 Legend Double Dagger -6.1 -6.9 94 26 13 16.1 100.83   -11 Snow
07:00 Legend Double Dagger -5.3 -6.3 93 28 13 16.1 100.81   -10 Snow
08:00 Legend Double Dagger -5.5 -6.3 94 26 13 16.1 100.80   -11 Snow
09:00 Legend Double Dagger -4.9 -5.8 94 25 9 16.1 100.80   -9 Snow
10:00 Legend Double Dagger -4.7 -5.5 94 26 5 16.1 100.78   -7 LegendNANA
11:00 Legend Double Dagger -4.2 -5.2 93 30 4 16.1 100.78   -6 LegendNANA
12:00 Legend Double Dagger -3.8 -5.3 89 LegendMM 4 16.1 100.79   -5 Snow
13:00 Legend Double Dagger -3.8 -5.1 91 13 5 16.1 100.76   -6 LegendNANA
14:00 Legend Double Dagger -4.0 -5.0 93 23 4 16.1 100.77   -6 LegendNANA
15:00 Legend Double Dagger -4.3 -5.1 94   0 16.1 100.77     LegendNANA
16:00 Legend Double Dagger -4.3 -5.0 95   0 16.1 100.76     LegendNANA
17:00 Legend Double Dagger -4.6 -5.3 95 34 4 16.1 100.74   -6 Snow
18:00 Legend Double Dagger -3.6 -4.9 91   0 16.1 100.72     Snow
19:00 Legend Double Dagger -4.5 -5.3 94 34 8 16.1 100.73   -8 Snow
20:00 Legend Double Dagger -4.5 -5.2 95 33 9 16.1 100.72   -8 Snow
21:00 Legend Double Dagger -5.2 -5.7 96 31 11 16.1 100.70   -10 Snow
22:00 Legend Double Dagger -5.3 -5.8 96 32 11 16.1 100.69   -10 LegendNANA
23:00 Legend Double Dagger -5.3 -5.8 96 33 13 16.1 100.68   -10 Snow

Notes on Data Quality.

Legend

  • E = Estimated
  • M = Missing
  • NA = Not Available
  • ‡ = Partner data that is not subject to review by the National Climate Archives
Date modified: